Wind_Speed
9 8 7 6 6 5 4 4 5 6 7 7 8 8 7 5 5 4 2 1 1 1 1 1 2 3 4 5 6 6 7 8 8 8 9 9 9 9 9 10 10 10 10 10 11 11 11 10 10
10 9 8 7 6 5 4 4 5 6 7 7 7 7 6 5 5 4 3 2 1 1 1 1 2 2 4 5 6 6 7 8 8 9 9 10 10 10 10 10 11 11 11 11 11 11 11 11 10
12 10 9 8 7 5 5 5 5 6 7 7 7 7 6 5 4 4 2 2 1 1 1 0 1 3 4 5 6 6 7 8 8 9 9 10 10 11 11 11 11 11 11 11 11 11 11 11 10
13 11 10 8 7 6 6 6 6 6 6 7 7 7 6 5 4 3 2 2 2 2 1 0 1 3 4 5 6 6 7 8 9 9 10 10 11 11 11 11 11 11 11 11 11 11 11 11 10
14 13 11 10 8 7 7 8 7 7 7 7 7 7 6 5 3 3 3 3 2 1 1 0 2 3 4 5 6 7 7 8 9 10 10 11 11 11 11 11 11 11 11 11 11 11 11 11 11
14 14 12 10 8 8 8 8 7 8 8 7 6 6 5 4 4 4 3 2 2 2 1 1 2 4 5 6 6 7 7 8 9 10 10 11 11 12 11 11 11 11 11 11 11 11 11 11 10
14 14 12 10 10 9 9 8 7 8 8 7 6 5 5 5 4 4 2 2 2 2 1 2 3 4 4 5 6 7 7 8 9 10 10 10 11 11 11 11 11 11 11 11 11 11 11 11 10
14 14 13 11 11 11 10 9 9 8 7 6 6 5 5 5 4 3 2 2 2 2 2 3 3 4 5 6 6 7 8 8 9 9 10 10 11 11 10 10 11 11 11 11 11 11 11 10 10
16 15 14 13 12 12 12 11 10 8 8 7 6 5 5 4 4 3 2 2 2 2 3 4 4 4 5 6 7 7 8 8 9 9 10 11 11 10 10 10 11 11 11 11 11 11 11 10 9
17 16 14 13 12 12 12 11 10 8 8 7 6 5 5 5 4 3 3 2 2 2 3 3 4 4 5 6 7 7 8 8 9 10 10 11 11 11 11 11 11 11 11 11 11 11 11 10 10
17 17 15 13 13 12 11 11 11 9 8 7 6 5 5 5 4 3 3 3 2 2 3 3 4 5 5 6 6 7 8 8 9 10 10 11 11 11 11 11 11 12 12 12 12 12 11 11 10
17 16 14 14 13 13 12 11 10 9 8 7 6 5 5 5 4 3 3 3 2 3 3 4 5 5 6 6 6 7 7 8 9 9 10 11 11 11 11 12 12 12 12 12 12 12 12 11 10
17 15 15 15 13 12 12 12 11 10 8 7 6 5 4 4 4 4 4 4 4 4 4 5 5 5 6 6 6 6 7 8 8 9 11 11 12 12 12 12 12 12 12 12 12 12 11 11 10
18 16 15 14 14 13 12 12 11 10 8 7 6 5 5 4 4 4 4 4 4 4 5 5 5 6 6 6 6 7 7 8 8 9 10 11 11 12 12 12 13 13 13 13 13 12 11 11 10
18 16 15 14 13 12 12 11 10 9 8 8 6 6 5 4 4 4 4 4 4 4 4 5 5 5 6 6 6 6 7 7 8 9 10 10 11 12 12 13 13 13 13 13 13 12 12 11 10
19 17 16 15 13 12 12 11 10 9 8 8 6 6 6 5 4 4 4 4 3 4 4 4 5 5 5 6 6 6 6 7 8 8 9 10 11 12 12 13 14 13 13 13 13 13 12 11 10
18 15 15 15 13 12 11 10 10 10 8 7 7 7 6 5 5 4 4 4 4 4 4 4 4 4 5 5 6 6 6 7 8 8 9 10 11 12 12 13 14 14 14 14 13 13 12 11 10
16 15 14 13 12 11 11 11 10 10 9 8 7 7 6 6 6 5 5 5 5 4 4 4 4 4 5 5 5 6 6 7 7 8 9 10 11 12 13 13 14 14 14 14 13 13 12 11 11
15 14 13 13 13 12 11 10 10 9 8 8 8 7 7 6 6 6 5 5 5 5 4 4 4 4 4 5 5 5 6 7 7 8 9 10 11 12 12 13 14 14 14 14 14 13 13 12 12
15 14 13 12 12 13 12 11 9 9 9 9 8 8 7 7 6 5 5 5 5 4 4 4 4 4 4 5 5 5 6 7 8 9 10 11 12 12 12 13 14 15 15 15 14 14 13 13 12
13 13 12 12 11 11 11 10 9 9 9 9 9 9 8 7 6 5 5 5 5 5 4 4 4 4 4 4 4 5 6 7 7 9 10 11 12 12 13 13 14 15 15 15 15 15 14 14 13
12 13 13 13 12 11 11 10 10 10 10 9 8 8 7 7 6 6 5 5 5 5 5 4 4 4 4 4 4 4 5 6 7 8 10 10 11 12 13 13 14 15 16 16 16 16 15 15 14
12 13 13 13 12 11 11 11 10 10 9 8 8 7 7 6 5 5 5 5 5 5 5 4 4 3 4 4 4 4 5 6 7 8 9 10 11 13 13 13 14 15 16 16 17 17 16 15 15
12 12 13 13 12 11 11 11 11 10 9 8 8 8 7 6 6 5 5 5 5 5 5 4 4 4 4 4 4 4 5 6 7 8 9 11 11 12 13 13 14 15 16 16 17 17 16 16 16
13 12 12 12 12 11 10 11 10 9 9 8 7 7 7 6 6 6 5 5 5 5 5 5 4 4 3 3 4 4 5 6 8 9 10 11 12 13 14 14 14 15 15 16 17 17 17 16 16
12 12 12 11 9 9 10 9 8 8 8 7 7 7 6 6 6 6 6 6 5 5 5 5 4 4 4 4 4 5 5 6 8 9 10 11 12 13 14 14 15 15 16 16 17 18 18 17 17
11 12 12 12 10 10 9 8 8 8 7 7 7 7 6 6 6 6 6 5 5 5 5 5 5 4 4 4 5 5 6 7 8 9 10 12 13 14 14 15 16 16 17 17 17 18 18 18 18
11 11 11 11 10 9 8 7 7 8 8 8 7 7 6 6 6 6 5 5 5 5 5 5 5 5 5 5 5 6 7 8 9 10 12 13 14 15 15 16 17 17 18 18 19 19 20 20 20
10 10 11 10 10 9 8 7 8 8 9 8 7 7 7 7 6 6 6 6 6 5 5 5 5 5 5 6 7 8 9 10 11 13 13 14 15 16 17 18 18 19 19 20 21 22 22 22 22
9 10 11 11 10 9 8 7 8 8 8 8 8 7 7 8 7 7 7 6 7 6 6 6 6 6 6 7 8 9 10 12 13 14 15 16 17 18 19 19 20 21 22 23 23 24 24 24 24
Wind_Direction
235 240 242 251 259 255 236 208 199 183 176 179 179 179 180 179 174 172 170 148 131 79 71 41 10 6 360 356 354 350 348 346 345 344 341 339 337 335 334 331 328 324 321 319 316 313 311 307 302
231 235 241 246 250 235 212 195 182 178 177 170 164 164 171 172 171 171 172 168 167 136 121 15 0 356 351 349 347 344 345 345 343 340 338 336 335 333 331 329 327 325 320 316 313 312 310 307 302
227 232 237 236 233 223 208 199 179 177 167 163 162 163 163 167 167 167 177 186 146 129 151 332 349 344 344 342 343 341 340 339 338 338 337 335 333 332 330 327 325 323 322 318 313 309 308 307 303
223 225 229 224 216 210 208 198 183 175 166 164 171 175 168 167 170 179 183 172 145 131 144 22 338 331 335 338 339 338 337 336 337 337 336 333 330 330 329 327 326 325 324 322 318 312 308 305 303
219 221 222 218 213 203 196 188 181 173 167 163 168 174 169 168 180 185 170 155 155 156 150 329 331 332 332 332 332 334 335 335 335 335 334 331 331 331 332 331 329 327 325 322 320 314 309 305 301
219 218 216 213 213 202 191 188 177 174 162 156 159 163 169 167 177 178 179 183 194 198 232 296 319 325 330 328 330 332 334 334 335 335 333 333 333 331 333 333 330 329 326 322 319 316 313 307 301
216 214 215 214 214 204 193 184 172 169 159 162 167 174 168 170 173 176 181 210 218 217 255 294 313 321 327 329 331 332 335 337 338 337 336 334 332 330 330 332 332 331 329 327 322 318 315 310 304
216 216 215 213 208 202 194 189 180 173 170 172 171 177 172 169 175 174 191 208 220 234 275 297 313 318 324 329 331 333 338 340 341 339 338 337 335 333 331 331 333 332 331 329 327 322 315 312 307
214 209 209 208 207 204 193 190 184 182 181 175 172 178 181 179 184 190 210 226 238 257 281 292 306 315 322 325 328 332 336 338 339 340 340 340 339 337 336 335 335 334 333 331 328 324 320 314 309
211 208 206 204 202 201 196 191 188 186 185 178 177 188 189 186 189 199 215 231 250 265 283 295 303 311 321 325 326 330 333 335 339 341 343 343 342 341 342 341 339 337 335 332 329 326 323 318 311
210 206 204 204 199 196 197 195 192 191 188 183 185 193 188 186 193 202 215 230 245 265 290 296 305 312 321 325 326 328 331 335 339 343 346 346 346 347 346 344 342 341 339 336 332 328 325 321 315
204 203 204 207 204 197 195 193 191 196 195 187 187 190 180 184 197 211 232 238 257 282 289 290 300 312 319 323 324 326 330 335 340 345 348 348 348 348 346 345 344 343 343 340 336 331 329 325 321
200 201 203 204 205 199 195 194 193 191 192 184 188 190 186 189 200 218 230 245 263 278 284 288 293 303 310 317 322 325 329 337 342 345 347 348 348 347 346 345 345 344 344 343 340 337 336 334 329
197 200 204 204 197 194 191 189 192 190 191 193 191 189 190 196 212 221 227 241 254 269 280 285 291 296 303 311 318 323 328 336 341 343 346 348 348 347 346 346 346 346 345 345 344 342 342 341 338
198 199 199 200 196 194 189 186 190 197 197 201 199 197 199 204 215 224 231 245 257 270 277 281 289 295 302 310 316 321 328 334 339 342 344 346 347 347 348 349 349 348 347 347 346 346 346 345 342
198 201 198 199 194 192 187 188 191 193 198 199 202 207 212 218 221 229 237 252 263 275 283 288 294 301 309 316 319 320 325 331 335 338 342 344 345 347 350 352 352 350 349 349 348 348 349 349 347
199 201 199 194 194 193 190 192 194 192 198 201 208 217 225 229 231 238 246 255 263 273 284 292 298 305 314 322 324 321 323 328 334 337 341 345 347 348 351 351 352 353 353 352 352 352 352 351 349
193 194 193 194 197 195 191 192 194 200 203 205 214 223 230 230 235 240 246 254 264 273 282 289 298 309 317 319 320 321 324 329 335 337 343 350 350 350 353 354 354 354 355 355 356 356 356 355 353
189 190 193 194 194 198 193 191 196 203 205 207 218 224 228 229 236 238 244 253 264 272 277 287 302 310 312 315 321 326 331 337 341 344 344 347 351 353 355 357 356 356 356 357 358 358 357 356 354
188 190 192 191 194 196 192 195 201 207 211 217 222 224 225 228 236 243 250 255 262 269 276 286 297 303 302 305 316 326 333 341 345 347 348 349 351 353 356 359 359 359 359 359 360 359 358 356 353
185 190 194 193 195 196 194 198 204 212 216 220 222 223 223 225 232 245 252 253 258 266 274 283 292 299 299 300 310 324 331 336 340 345 349 352 353 355 357 358 359 0 0 0 359 357 356 354 351
188 191 191 189 196 199 201 204 206 208 210 214 218 219 218 222 231 240 249 256 264 269 275 281 290 295 295 298 305 319 329 334 340 346 351 352 354 355 357 359 359 0 1 1 360 358 356 354 352
192 191 190 194 202 207 207 209 203 206 207 212 217 218 218 222 228 235 246 256 263 268 271 276 282 288 293 298 307 317 326 333 340 347 350 349 349 352 355 356 357 358 359 359 358 357 355 353 352
196 193 195 200 206 209 208 208 202 208 213 218 222 219 220 221 229 238 247 256 258 263 265 270 278 285 290 297 310 317 325 334 339 344 347 349 346 348 350 351 351 352 352 353 354 354 353 351 350
195 199 201 202 206 207 207 202 201 211 217 218 221 224 224 226 237 247 251 255 254 255 261 267 276 287 293 299 307 312 322 333 338 340 342 344 342 341 343 346 346 346 347 349 350 350 349 347 346
198 202 210 213 209 206 207 206 211 215 218 220 223 228 231 234 243 252 253 254 256 256 259 265 275 285 294 298 306 314 321 329 333 335 337 339 339 339 338 340 341 341 343 344 345 345 344 343 343
202 208 213 217 221 215 212 212 217 219 225 229 229 230 235 243 249 251 251 253 254 254 258 263 268 276 284 293 299 307 318 323 326 329 332 334 335 335 334 335 335 335 336 338 338 338 338 337 336
207 206 210 216 223 221 218 219 224 232 233 235 237 238 242 250 253 250 249 250 248 250 257 264 270 271 280 291 299 309 313 315 320 325 326 326 328 330 330 331 331 331 332 333 333 333 332 331 329
209 211 213 215 220 226 225 220 229 236 237 240 244 245 251 255 258 257 254 249 248 251 259 267 267 270 282 294 301 304 309 312 314 318 320 321 323 324 325 326 328 330 330 329 329 329 328 327 325
216 219 220 221 225 231 232 220 234 242 246 249 251 251 254 258 261 260 256 252 250 253 263 264 268 276 283 292 298 302 306 310 312 314 317 319 319 320 320 321 323 325 326 326 327 326 326 324 323
Height
5863 5863 5864 5866 5867 5867 5866 5867 5867 5868 5869 5871 5872 5873 5875 5877 5879 5882 5880 5879 5880 5880 5880 5880 5880 5879 5879 5878 5878 5877 5876 5875 5874 5873 5872 5871 5870 5870 5869 5868 5867 5866 5865 5864 5864 5863 5863 5862 5862
5862 5863 5865 5866 5866 5866 5866 5867 5868 5868 5869 5870 5871 5873 5875 5876 5878 5879 5879 5879 5879 5880 5880 5880 5880 5879 5879 5878 5877 5876 5875 5875 5874 5872 5872 5871 5870 5869 5868 5867 5866 5865 5864 5863 5862 5862 5861 5861 5860
5860 5862 5864 5865 5865 5866 5867 5867 5868 5868 5869 5871 5872 5873 5875 5876 5877 5878 5879 5879 5880 5880 5880 5880 5879 5879 5878 5878 5877 5876 5875 5874 5873 5872 5871 5870 5869 5868 5867 5866 5865 5864 5863 5862 5861 5860 5860 5859 5859
5859 5861 5863 5864 5864 5865 5866 5867 5867 5868 5870 5871 5872 5874 5875 5876 5877 5878 5878 5879 5879 5880 5880 5880 5879 5879 5878 5877 5877 5876 5875 5874 5873 5872 5870 5869 5868 5867 5866 5865 5864 5862 5861 5860 5859 5859 5858 5858 5857
5857 5860 5861 5862 5864 5865 5866 5867 5867 5868 5869 5871 5872 5874 5874 5876 5876 5877 5878 5878 5879 5880 5880 5879 5879 5878 5878 5877 5876 5875 5874 5873 5872 5871 5870 5868 5867 5866 5865 5864 5862 5861 5860 5859 5858 5857 5856 5856 5855
5856 5858 5861 5862 5863 5864 5865 5866 5867 5868 5869 5871 5872 5874 5874 5875 5876 5877 5878 5878 5879 5879 5879 5879 5879 5878 5877 5877 5876 5875 5874 5873 5871 5870 5869 5867 5866 5865 5864 5863 5861 5860 5858 5857 5856 5855 5854 5854 5853
5855 5857 5859 5861 5862 5864 5865 5866 5867 5868 5869 5871 5872 5873 5874 5875 5876 5877 5878 5878 5878 5879 5879 5879 5878 5878 5877 5876 5875 5874 5873 5872 5871 5870 5868 5867 5866 5864 5863 5862 5860 5859 5857 5856 5854 5853 5852 5852 5851
5852 5856 5857 5859 5861 5863 5865 5866 5867 5868 5869 5871 5872 5873 5874 5875 5876 5877 5878 5878 5878 5879 5878 5878 5878 5878 5877 5876 5875 5874 5873 5872 5870 5869 5868 5866 5865 5863 5862 5860 5859 5857 5856 5854 5853 5852 5851 5850 5849
5851 5855 5856 5858 5860 5862 5864 5865 5867 5868 5869 5871 5872 5873 5874 5875 5876 5877 5877 5878 5878 5878 5878 5878 5877 5877 5876 5875 5875 5874 5873 5871 5870 5869 5867 5866 5864 5863 5861 5859 5858 5856 5854 5853 5851 5850 5849 5848 5847
5849 5852 5855 5857 5859 5861 5863 5865 5867 5868 5869 5870 5872 5873 5873 5875 5876 5876 5877 5877 5877 5877 5877 5877 5877 5877 5876 5875 5874 5873 5872 5871 5870 5868 5867 5865 5864 5862 5860 5858 5856 5855 5853 5852 5850 5849 5847 5846 5845
5847 5850 5853 5855 5857 5860 5862 5864 5866 5868 5869 5871 5871 5872 5873 5874 5875 5876 5877 5877 5877 5877 5877 5877 5876 5876 5875 5875 5874 5873 5872 5871 5869 5868 5866 5865 5863 5861 5859 5857 5856 5854 5852 5850 5848 5847 5845 5844 5843
5846 5848 5852 5854 5856 5859 5861 5863 5865 5867 5869 5870 5871 5872 5873 5874 5875 5876 5876 5876 5876 5876 5876 5876 5876 5875 5875 5874 5873 5873 5872 5870 5869 5867 5866 5864 5862 5861 5859 5857 5855 5853 5851 5849 5847 5845 5843 5842 5841
5844 5848 5850 5853 5855 5858 5860 5862 5865 5866 5868 5869 5870 5871 5872 5873 5874 5875 5875 5875 5875 5875 5875 5875 5875 5875 5874 5874 5873 5872 5871 5870 5868 5867 5865 5864 5862 5860 5858 5856 5854 5852 5850 5848 5845 5843 5842 5840 5838
5843 5846 5849 5852 5855 5857 5859 5862 5864 5865 5867 5869 5870 5871 5872 5872 5873 5874 5874 5875 5875 5875 5875 5875 5874 5874 5873 5873 5872 5871 5870 5869 5868 5866 5865 5863 5862 5860 5858 5856 5853 5851 5849 5846 5844 5842 5840 5838 5837
5842 5846 5849 5851 5854 5856 5859 5862 5863 5865 5866 5868 5869 5870 5871 5872 5873 5873 5874 5874 5874 5874 5874 5874 5873 5873 5873 5872 5871 5871 5870 5869 5867 5866 5864 5863 5861 5859 5857 5855 5852 5850 5848 5845 5843 5841 5839 5837 5836
5841 5845 5848 5851 5853 5855 5859 5861 5862 5864 5866 5867 5868 5869 5870 5871 5872 5872 5873 5873 5873 5873 5873 5873 5872 5872 5872 5871 5871 5870 5869 5868 5867 5865 5864 5862 5860 5858 5856 5854 5852 5849 5847 5844 5842 5840 5838 5836 5835
5841 5844 5847 5850 5852 5854 5857 5859 5862 5863 5865 5866 5867 5868 5869 5870 5871 5871 5872 5872 5872 5872 5872 5872 5871 5871 5871 5870 5870 5869 5868 5868 5866 5865 5863 5861 5860 5858 5856 5853 5851 5849 5846 5844 5841 5839 5837 5835 5834
5841 5844 5846 5849 5851 5854 5856 5859 5861 5862 5864 5865 5866 5867 5868 5869 5870 5870 5871 5871 5871 5871 5871 5871 5870 5870 5870 5869 5869 5868 5868 5867 5865 5864 5862 5861 5859 5857 5855 5853 5851 5848 5846 5843 5841 5838 5836 5835 5833
5840 5844 5846 5849 5851 5854 5856 5858 5860 5862 5863 5864 5865 5866 5867 5868 5869 5869 5869 5870 5870 5870 5870 5870 5869 5869 5869 5868 5868 5867 5867 5866 5865 5863 5861 5860 5858 5857 5854 5852 5850 5848 5845 5843 5840 5838 5836 5834 5833
5840 5844 5846 5849 5851 5853 5855 5858 5860 5861 5862 5864 5864 5865 5866 5867 5867 5868 5868 5868 5869 5869 5869 5868 5868 5868 5867 5867 5867 5866 5866 5865 5864 5862 5861 5859 5858 5856 5854 5852 5850 5847 5845 5842 5840 5838 5836 5834 5832
5840 5844 5846 5849 5851 5853 5855 5858 5859 5860 5861 5862 5863 5864 5865 5866 5866 5867 5867 5867 5867 5867 5867 5867 5866 5866 5866 5865 5865 5865 5865 5864 5863 5862 5860 5859 5857 5855 5853 5851 5849 5847 5845 5842 5840 5838 5836 5834 5832
5841 5843 5846 5848 5851 5853 5856 5857 5859 5859 5860 5861 5862 5863 5864 5864 5865 5865 5866 5866 5866 5865 5865 5865 5865 5864 5864 5864 5864 5864 5864 5863 5862 5861 5859 5858 5857 5855 5853 5851 5849 5847 5845 5842 5840 5838 5835 5833 5831
5841 5843 5846 5848 5850 5853 5855 5856 5858 5858 5859 5860 5861 5862 5862 5863 5863 5864 5864 5864 5864 5864 5863 5863 5863 5863 5862 5862 5862 5863 5863 5862 5861 5860 5859 5858 5856 5855 5853 5851 5849 5847 5845 5842 5840 5837 5835 5833 5831
5841 5844 5846 5848 5850 5852 5854 5855 5857 5857 5858 5859 5860 5861 5861 5861 5862 5862 5862 5862 5862 5862 5862 5861 5861 5861 5861 5861 5861 5861 5862 5861 5860 5859 5858 5857 5856 5854 5853 5851 5849 5847 5844 5842 5839 5837 5835 5832 5830
5841 5844 5846 5847 5849 5851 5852 5854 5856 5856 5857 5858 5859 5859 5859 5860 5860 5860 5860 5860 5860 5860 5860 5860 5860 5860 5860 5860 5860 5860 5860 5860 5859 5858 5858 5856 5855 5853 5852 5850 5848 5846 5844 5841 5839 5836 5834 5832 5829
5841 5844 5847 5848 5849 5851 5852 5853 5855 5855 5856 5857 5858 5858 5858 5859 5859 5859 5858 5858 5858 5858 5858 5859 5859 5859 5858 5858 5858 5859 5859 5859 5858 5857 5856 5855 5854 5852 5851 5849 5847 5845 5843 5840 5838 5835 5833 5830 5828
5841 5843 5845 5848 5849 5850 5851 5853 5854 5855 5856 5856 5857 5857 5857 5857 5857 5857 5857 5856 5856 5856 5856 5857 5857 5857 5857 5857 5857 5857 5857 5857 5857 5856 5855 5854 5852 5851 5849 5847 5845 5843 5841 5839 5836 5834 5831 5829 5827
5841 5842 5844 5846 5848 5849 5851 5852 5854 5854 5855 5855 5856 5856 5856 5856 5855 5855 5855 5854 5854 5855 5855 5855 5855 5855 5856 5856 5856 5856 5856 5856 5855 5854 5853 5852 5851 5849 5847 5845 5843 5841 5839 5836 5834 5832 5829 5827 5824
5841 5843 5844 5845 5847 5849 5850 5854 5853 5853 5854 5854 5854 5854 5854 5854 5853 5853 5852 5852 5852 5853 5853 5853 5853 5854 5854 5854 5854 5854 5854 5854 5853 5852 5851 5850 5848 5846 5845 5843 5841 5838 5836 5834 5831 5829 5826 5823 5821
5840 5842 5843 5845 5846 5847 5849 5854 5852 5852 5852 5852 5853 5853 5852 5852 5851 5851 5850 5850 5850 5851 5851 5851 5852 5852 5852 5852 5853 5853 5852 5851 5850 5849 5848 5847 5845 5844 5841 5839 5837 5835 5832 5830 5827 5825 5822 5819 5817